Time,TemperatureF,DewpointF,PressureIn,WindDirection,WindDirectionDegrees,WindSpeedMPH,WindSpeedGustMPH,Humidity,HourlyPrecipIn,Conditions,Clouds,dailyrainin,SoftwareType,DateUTC
2013-06-13 00:00:00,31.0,30.0,-100.00,ENE,70,21.0,27.0,97,-99.99,,,-99.99,,2013-06-13 07:00:00,
2013-06-13 00:52:00,31.0,30.0,-100.00,ENE,70,21.0,27.0,97,-99.99,,,-99.99,,2013-06-13 07:52:00,
2013-06-13 01:00:00,31.0,30.0,-100.00,NNW,328,20.0,28.0,95,-99.99,,,-99.99,,2013-06-13 08:00:00,
2013-06-13 02:00:00,30.0,29.0,-100.00,NW,325,20.0,25.0,97,-99.99,,,-99.99,,2013-06-13 09:00:00,
2013-06-13 03:00:00,30.0,29.0,-100.00,NW,306,18.0,23.0,95,-99.99,,,-99.99,,2013-06-13 10:00:00,
2013-06-13 03:53:00,30.0,29.0,-100.00,NW,306,18.0,23.0,95,-99.99,,,-99.99,,2013-06-13 10:53:00,
2013-06-13 04:00:00,30.0,29.0,-100.00,NW,309,18.0,24.0,98,-99.99,,,-99.99,,2013-06-13 11:00:00,
2013-06-13 04:52:00,30.0,29.0,-100.00,NW,309,18.0,24.0,98,-99.99,,,-99.99,,2013-06-13 11:52:00,
2013-06-13 05:00:00,30.0,29.0,-100.00,NW,317,17.0,22.0,97,-99.99,,,-99.99,,2013-06-13 12:00:00,
2013-06-13 05:52:00,30.0,29.0,-100.00,NW,317,17.0,22.0,97,-99.99,,,-99.99,,2013-06-13 12:52:00,
2013-06-13 06:00:00,29.0,28.0,-100.00,NW,318,15.0,20.0,97,-99.99,,,-99.99,,2013-06-13 13:00:00,
2013-06-13 07:00:00,30.0,28.0,-100.00,NNW,328,15.0,18.0,94,-99.99,,,-99.99,,2013-06-13 14:00:00,
2013-06-13 08:00:00,32.0,29.0,-100.00,NNW,336,15.0,20.0,90,-99.99,,,-99.99,,2013-06-13 15:00:00,
2013-06-13 09:00:00,35.0,30.0,-100.00,South,175,15.0,20.0,83,-99.99,,,-99.99,,2013-06-13 16:00:00,
2013-06-13 10:00:00,35.0,31.0,-100.00,West,265,14.0,20.0,85,-99.99,,,-99.99,,2013-06-13 17:00:00,
2013-06-13 11:00:00,41.0,33.0,-100.00,West,259,15.0,18.0,72,-99.99,,,-99.99,,2013-06-13 18:00:00,
2013-06-13 14:00:00,38.0,32.0,-100.00,North,5,18.0,23.0,78,-99.99,,,-99.99,,2013-06-13 21:00:00,
2013-06-13 14:52:00,38.0,32.0,-100.00,North,5,18.0,23.0,78,-99.99,,,-99.99,,2013-06-13 21:52:00,
2013-06-13 15:00:00,39.0,32.0,-100.00,North,6,20.0,25.0,75,-99.99,,,-99.99,,2013-06-13 22:00:00,
2013-06-13 16:00:00,38.0,33.0,-100.00,ESE,109,20.0,25.0,81,-99.99,,,-99.99,,2013-06-13 23:00:00,
2013-06-13 17:00:00,36.0,32.0,-100.00,East,94,20.0,24.0,86,-99.99,,,-99.99,,2013-06-14 00:00:00,
2013-06-13 18:00:00,34.0,32.0,-100.00,SE,126,21.0,27.0,94,-99.99,,,-99.99,,2013-06-14 01:00:00,
2013-06-13 19:00:00,33.0,32.0,-100.00,WSW,249,20.0,27.0,95,-99.99,,,-99.99,,2013-06-14 02:00:00,
2013-06-13 19:52:00,33.0,32.0,-100.00,WSW,249,20.0,27.0,95,-99.99,,,-99.99,,2013-06-14 02:52:00,
2013-06-13 20:00:00,32.0,32.0,-100.00,SW,214,23.0,28.0,98,-99.99,,,-99.99,,2013-06-14 03:00:00,
2013-06-13 21:00:00,32.0,32.0,-100.00,South,181,22.0,27.0,98,-99.99,,,-99.99,,2013-06-14 04:00:00,
2013-06-13 22:00:00,32.0,31.0,-100.00,South,183,20.0,24.0,96,-99.99,,,-99.99,,2013-06-14 05:00:00,
2013-06-13 23:00:00,32.0,31.0,-100.00,SSW,202,20.0,27.0,97,-99.99,,,-99.99,,2013-06-14 06:00:00,